Regional Weather Roundup
Issued by NWS

Home | Current Version | Previous Version | Text Only | Print | Product List | Glossary On
Versions: 1 2 3 4 5 6 7 8 9 10 11 12 13 14 15 16 17 18 19 20 21 22 23 24 25 26 27 28 29 30 31 32 33 34 35 36 37 38 39 40 41 42 43 44 45 46 47 48 49 50
000
ASUS43 KDTX 262110
RWRMI
MICHIGAN HOURLY REGIONAL WEATHER ROUNDUP
NATIONAL WEATHER SERVICE DETROIT/PONTIAC MI
400 PM EST MON JAN 26 2015

NOTE: "FAIR" INDICATES FEW OR NO CLOUDS BELOW 12,000 FEET WITH NO
SIGNIFICANT WEATHER AND/OR OBSTRUCTION TO VISIBILITY.

MIZ047>049-052>055-059>063-066>070-074>076-081>083-262200-
SOUTHEAST LOWER MICHIGAN

CITY           SKY/WX    TMP DP  RH WIND       PRES   REMARKS
ADRIAN         MOSUNNY   24   7  48 CALM      29.90R
ALMA           SUNNY     21  10  61 NE3       29.92S
ANN ARBOR      SUNNY     27   7  42 E6        29.88S
BAD AXE        SUNNY     19  11  69 E5        29.94R
DETROIT CITY   SUNNY     28   9  44 N9        29.90R
DETROIT        PTSUNNY   26   7  44 NE3       29.90S
FLINT          SUNNY     26   8  46 N7        29.91S
GROSSE ILE     SUNNY     21  10  63 E5        29.89S
HILLSDALE      MOSUNNY   24   4  42 CALM      29.87R
HOWELL         SUNNY     24   6  45 NE3       29.88S

CITY           SKY/WX    TMP DP  RH WIND       PRES   REMARKS
JACKSON        MOSUNNY   26   4  38 N3        29.88R
LAMBERTVILLE   SUNNY     27   7  43 NE3       29.90S
LANSING        SUNNY     24   6  46 N7        29.91R
LAPEER         NOT AVBL
MASON          PTSUNNY   22   7  52 NE6       29.89S
MONROE         SUNNY     25   7  46 N3        29.88S
MT. CLEMENS    PTSUNNY   24  12  61 N8        29.88R
PONTIAC        PTSUNNY   24   7  48 N7        29.87R
PORT HOPE        N/A     21  10  62 E12       29.94R
PORT HURON     PTSUNNY   19  14  79 NE9       29.92R
TRI CITIES     SUNNY     23  11  60 NE8       29.94R
YPSILANTI      SUNNY     29   6  38 NE8       29.89S
$$
MIZ043>046-050>051-056>058-064>065-071>073-077>080-262200-
SOUTHWEST LOWER MICHIGAN

CITY           SKY/WX    TMP DP  RH WIND       PRES   REMARKS
BATTLE CREEK   PTSUNNY   26   4  38 SW3       29.89R
BENTON HARBOR  CLOUDY    23  10  57 CALM      29.91R
BIG RAPIDS     MOSUNNY   22   5  47 E5        29.88S
COLDWATER      SUNNY     23   3  41 CALM      29.89R
HOLLAND        CLOUDY    24   7  48 CALM      29.91S
GRAND RAPIDS   PTSUNNY   23   4  44 E3        29.91R
KALAMAZOO      CLOUDY    24   3  40 CALM      29.90R
MARSHALL         N/A     24   5  44 CALM      29.88S
MUSKEGON       CLOUDY    23   6  48 E6        29.91F
$$
MIZ016>042-262200-
NORTHERN LOWER MICHIGAN

CITY           SKY/WX    TMP DP  RH WIND       PRES   REMARKS
ALPENA         CLOUDY    20  10  65 E10       29.97S
BEAVER ISLAND  MOSUNNY   20  10  63 E10       29.93S
BELLAIRE       CLOUDY    24   5  43 E5        29.92S
CADILLAC       MOSUNNY   20   7  57 E7        29.85S
CHARLEVOIX     CLOUDY    22   9  56 E6        29.94F
FRANKFORT      MOCLDY    24  10  54 S8        29.89F
GAYLORD        SUNNY     19   8  62 E6        29.87F
GRAYLING       SUNNY     21   6  52 SE9       29.89S
HARBOR SPRINGS MOSUNNY   22   8  54 E7        29.92F
HOUGHTON LAKE  SUNNY     21   7  54 E6        29.89R
MANISTEE       PTSUNNY   23   7  50 SE7       29.89F
OSCODA         LGT SNOW  21  16  80 E5        29.95S
PELLSTON       SUNNY     21   8  57 E12       29.94F
TRAVERSE CITY  CLOUDY    25   6  44 SE5       29.89F
$$
MIZ007>008-015-262200-
EASTERN UPPER MICHIGAN

CITY           SKY/WX    TMP DP  RH WIND       PRES   REMARKS
KINROSS        PTSUNNY   16  10  79 E13       29.96S
MACKINAC ISLAN CLOUDY    22  11  63 E6        29.94S
NEWBERRY       CLOUDY    19  10  69 SE9G16    29.92S
S. S. MARIE    SUNNY     15  -2  46 SE9G17    29.98R
$$
MIZ004>006-011>014-085-262200-
CENTRAL UPPER MICHIGAN

CITY           SKY/WX    TMP DP  RH WIND       PRES   REMARKS
MANISTIQUE     CLOUDY    23  14  69 SE12G18   29.92R
ESCANABA       CLOUDY    25  18  74 S13       29.87R
MENOMINEE      CLOUDY    25  21  86 SE9       29.85R
SAWYER-GWINN   CLOUDY    21  16  79 S14G20    29.81R
$$
MIZ001>003-009>011-084-262200-
WESTERN UPPER MICHIGAN

CITY           SKY/WX    TMP DP  RH WIND       PRES   REMARKS
IRON MOUNTAIN  CLOUDY    22  15  75 S7        29.80R
HOUGHTON       CLOUDY    23  14  68 S9        29.75R
COPPER HARBOR    N/A     25  15  66 SW10      29.80R
IRONWOOD       CLOUDY    21  16  79 S8        29.69R
$$

ABBREVIATIONS USED IN REMARKS
   TC - TEMPERATURE IN CELSIUS
  WCI - WIND CHILL INDEX
   HX - HEAT INDEX
  VSB - VISIBILITY



USA.gov is the U.S. government's official web portal to all federal, state and local government web resources and services.